Terminal Aerodrome Forecast
Issued by NWS St Louis, MO

Home | Current Version | Previous Version | Text Only | Print | Product List | Glossary On
Versions: 1 2 3 4 5 6 7 8 9 10 11 12 13 14 15 16 17 18 19
000
FTUS43 KLSX 272300
TAFCOU
TAF
KCOU 272339Z 2800/2824 05005KT P6SM SCT030 BKN080
     FM280200 07005KT P6SM BKN250
     FM280800 11005KT P6SM SCT100 BKN250
      TEMPO 2808/2812 4SM BR
     FM281700 17008KT P6SM SCT040 BKN250=

USA.gov is the U.S. government's official web portal to all federal, state and local government web resources and services.